Location: Colonia Mina de C?rbuni
(46.1667°N, 22.7167°E)
Time: 16:36:33
(UTC+00:00)

S-56A Canister/Altair - Pass Details

Date: 16 April 2024
Orbit: 638 x 2488 km, 38.9° (Epoch: 26 May)

Event Time Altitude Azimuth Distance (km) Brightness Sun altitude
Rises 19:09:08 0° 263° (W) 3,943 11.9 -17.9°
Reaches altitude 10° 19:11:32 10° 259° (W) 3,188 11.2 -18.2°
Maximum altitude 19:19:29 56° 184° (S) 1,884 9.2 -19.3°
Enters shadow 19:26:10 27° 120° (ESE) 3,192 10.0 -20.1°
